EST,Max TemperatureF,Mean TemperatureF,Min TemperatureF,Max Dew PointF,MeanDew PointF,Min DewpointF,Max Humidity, Mean Humidity, Min Humidity, Max Sea Level PressureIn, Mean Sea Level PressureIn, Min Sea Level PressureIn, Max VisibilityMiles, Mean VisibilityMiles, Min VisibilityMiles, Max Wind SpeedMPH, Mean Wind SpeedMPH, Max Gust SpeedMPH,PrecipitationIn, CloudCover, Events, WindDirDegrees
2012-1-1,50,41,30,43,32,19,100,71,39,30.11,29.96,29.83,10,9,2,31,15,44,0.06,4,Rain,240
2012-1-2,28,19,10,21,13,5,100,77,63,29.85,29.82,29.77,10,8,0,30,22,47,0.00,7,Snow,281
2012-1-3,10,9,8,9,5,0,92,84,62,30.03,29.91,29.82,10,4,0,30,17,41,0.00,8,Snow,292
2012-1-4,28,17,6,21,7,0,92,68,34,30.12,30.01,29.92,10,10,10,24,18,32,0.00,2,Snow,272
2012-1-5,35,30,26,23,20,18,86,67,52,29.99,29.93,29.84,10,10,10,25,20,34,0.00,4,,277
2012-1-6,51,42,33,27,22,19,60,48,34,30.00,29.96,29.92,10,10,10,29,21,36,0.00,0,,266
2012-1-7,46,44,41,45,35,19,100,75,39,30.02,29.93,29.88,10,9,0,24,20,33,0.06,5,Rain,274
2012-1-8,42,34,26,25,20,16,86,58,36,30.24,30.19,30.08,10,10,1,14,8,,0.00,0,,277
2012-1-9,35,30,26,34,28,18,100,88,48,30.21,30.11,29.99,10,5,0,17,7,23,0.10,7,Fog-Rain-Snow,189
2012-1-10,39,34,28,30,26,25,100,76,61,30.02,29.99,29.93,10,10,10,25,17,34,0.00,0,,275
2012-1-11,39,36,32,36,30,18,100,85,42,29.99,29.79,29.51,10,4,0,15,9,21,0.66,6,Fog-Rain-Snow,129
2012-1-12,41,38,35,41,39,36,100,100,93,29.54,29.51,29.46,10,4,0,25,11,37,0.17,8,Fog-Rain-Snow,250
2012-1-13,26,19,12,27,13,10,100,90,79,29.79,29.60,29.40,10,7,0,37,26,47,0.00,8,Snow,274
2012-1-14,23,18,12,16,13,12,100,86,68,29.98,29.91,29.80,10,7,0,28,20,37,0.00,6,Snow,274
2012-1-15,21,18,15,18,13,7,100,81,54,30.37,30.20,29.97,10,10,4,13,10,18,0.00,4,Snow,276
2012-1-16,37,27,19,28,19,10,93,72,56,30.36,30.29,30.15,10,10,5,18,9,24,0.01,4,Rain-Snow,195
2012-1-17,50,42,35,46,38,27,100,80,61,30.13,29.94,29.82,10,9,0,28,18,38,0.56,7,Rain,247
2012-1-18,37,26,15,32,17,10,93,79,68,30.02,29.94,29.84,10,10,7,31,17,44,0.00,6,Snow,293
2012-1-19,33,22,12,18,13,9,86,67,44,30.00,29.95,29.89,10,10,10,23,9,33,0.00,3,,229
2012-1-20,35,30,26,28,22,12,100,72,47,30.10,30.02,29.92,10,8,0,25,15,36,0.07,6,Snow,235
2012-1-21,44,36,28,45,37,28,100,100,100,30.05,29.90,29.82,10,2,0,17,10,25,0.48,8,Fog-Rain-Snow-Thunderstorm,253
2012-1-22,30,26,21,30,28,21,100,100,93,30.25,30.21,30.12,0,0,0,10,6,,0.00,8,Fog-Snow,124
2012-1-23,46,40,33,45,40,34,100,98,87,30.19,30.01,29.88,10,3,0,24,9,30,0.16,6,Rain-Snow,191
2012-1-24,44,38,33,43,32,27,100,77,49,30.20,30.08,29.96,10,10,10,26,19,33,0.00,2,,280
2012-1-25,46,38,30,30,27,19,87,64,34,30.30,30.24,30.17,10,10,10,22,11,23,0.00,1,,225
2012-1-26,55,48,42,50,41,28,100,75,53,30.16,30.01,29.82,10,9,0,20,9,28,0.00,6,Fog-Rain,199
2012-1-27,51,40,28,52,39,27,100,94,75,29.94,29.70,29.57,10,8,0,32,21,45,0.36,8,Fog-Rain-Snow,266
2012-1-28,39,32,26,32,23,9,100,73,30,30.09,29.99,29.94,10,10,7,30,16,43,0.00,3,,266
2012-1-29,35,27,19,18,12,9,74,55,33,30.20,30.11,30.02,10,10,10,29,16,40,0.00,2,,262
2012-1-30,41,30,19,19,13,3,64,50,41,30.29,30.21,30.08,10,10,10,24,17,37,0.00,0,,264
2012-1-31,55,47,39,25,22,19,45,39,30,30.28,30.24,30.20,10,10,10,25,20,31,0.00,1,,261